STARLINK-32346, 61849

Orbit data source: Space-Track

STARLINK-32346, 61849 is a payload satellite owned by SpaceX/Seattle (US) in LEO that was launched on Thu, 07 Nov 2024 UTC via an FALCON 9 launch vehicle from the Air Force Eastern Test Range (AFETR). Payload-class satellites include a variety of spacecraft equipped with specific instruments for various scientific and technological missions. These include communications satellites like Starlink; space stations such as the ISS; scientific satellites like the Hubble; Earth observation satellites from companies like Planet Labs, Umbra, and HawkEye 360; GPS; miniature CubeSats for education and research; and military/defense satellites.

Loading next visibility...
Identifier
61849, 2024-202E
Orbit
LEO
Country
Flag of USUS
Related business
Manufacturer
SpaceX/Seattle
Mission
Operational Commercial Communications
Bus & Motor
STARLINK V2M, Unknown motor
Mass
730 kg wet, ~700 kg dry
Launch date (UTC)
2024-11-07 (10 months ago)
Launch vehicle
FALCON 9
Launch site
Air Force Eastern Test Range (AFETR)
Object type
Payload
Rocket body
Debris
Shape & HBR
Box + 2 Pan, 14.5 m
Radar Cross Section
33.884 m², Large (>1 m²)

Expand to show TLE details & history
Last TLE update: 1 day ago

TLE from 1 day ago
0 STARLINK-32346
1 61849U 24202E   25259.35844628 -.00000385  00000-0 -44796-5 0  9994
2 61849  43.0074 131.4711 0000834 299.0415  61.0353 15.27575824 48793
Epoch: 2025-09-16T08:36Z
TLE epoch observation values (Epoch: 2025-09-16T08:36:09.758Z)
Latitude
-0.00003°
Longitude
6.88051°
Altitude
482.561 km
Speed
7.626 km/s
True Right ascension
08h 45m 53s
True Declination
0° 00' 00"
Sunlit
Object was in daylight at epoch
Visualization orbit readout
Latitude
Unknown
Longitude
Unknown
Altitude
Unknown
Speed
Unknown
Apparent Right ascension
Unknown
Apparent Declination
Unknown
Sunlit
N/A
Visualization observer readout
Local Sidereal Time
12:59:49
Azimuth
Unknown
Elevation
Unknown
Doppler factor
Unknown
Orbital elements
Apogee altitude
485.578 km
Perigee altitude
484.433 km
Semi-major axis
6,863.143 km
Eccentricity
0.00008
Inclination
43.0074°
RAAN
131.4711°
Arg. of periapsis
299.0415°
True anomaly
61.04366°
Mean anomaly
61.0353°
Eccentric anomaly
61.03948°
Mean motion
3.81732 °/min
Orbital period
94.31 mins
BSTAR
-0.0000044796
Loading maneuver chart data...
Computing Atmospheric mass density...
Loading historical data...
Loading historical data...
Loading historical data...
Loading historical data...
Loading historical data...
Loading historical data...
Loading historical data...

Documentation

Showing up to 5 results
|